Location: Franzen
(48.6167°N, 15.3833°E)
Time: 18:35:43
(UTC+00:00)

A-11 Canister half - Pass Details

Date: 31 July 2021
Orbit: 1515 x 1685 km, 47.2° (Epoch: 19 September)

Event Time Altitude Azimuth Distance (km) Brightness Sun altitude
Rises 23:27:40 0° 290° (WNW) 4,932 11.8 -23.2°
Reaches altitude 10° 23:31:38 10° 278° (W) 3,949 11.1 -23.1°
Maximum altitude 23:39:04 24° 230° (SW) 2,985 10.1 -22.9°
Enters shadow 23:39:17 24° 228° (SW) 2,985 10.1 -22.9°
Drops below altitude 10° 23:46:29 10° 182° (S) 3,921 - -22.7°
Sets 23:50:25 0° 169° (S) 4,888 - -22.6°
